When you browse on this site, cookies collect data to enhance your experience and personalize the content and advertising you see.
Visit our Privacy Policy to learn more. By continuing to use the site, you agree to this use of cookies and data.
  • In Lithuania
  • List of Countries
  • For 7 days
  • Water Temperature
  • Weather Map
  • Weather Widgets
  • user-avatar
    Login

    Hourly Weather Nuwejba

    Today, 7 June, Sunday

    Time Temperature Precipitation Wind Pressure Humidity
    00:00 +24°C° 0 mm 2 mps 690 mmHg 43%
    01:00 +24°C° 0 mm 1 mps 689 mmHg 43%
    02:00 +23°C° 0 mm 1 mps 689 mmHg 43%
    03:00 +23°C° 0 mm 1 mps 689 mmHg 43%
    04:00 +23°C° 0 mm 1 mps 689 mmHg 42%
    05:00 +22°C° 0 mm 1 mps 689 mmHg 42%
    06:00 +25°C° 0 mm 1 mps 689 mmHg 35%
    07:00 +27°C° 0 mm 1 mps 690 mmHg 29%
    08:00 +30°C° 0 mm 1 mps 690 mmHg 23%
    09:00 +32°C° 0 mm 1 mps 690 mmHg 19%
    10:00 +33°C° 0 mm 1 mps 691 mmHg 16%
    11:00 +35°C° 0 mm 1 mps 691 mmHg 13%
    12:00 +37°C° 0 mm 2 mps 691 mmHg 11%
    13:00 +38°C° 0 mm 3 mps 690 mmHg 10%
    14:00 +38°C° 0 mm 3 mps 690 mmHg 9%
    15:00 +38°C° 0 mm 4 mps 690 mmHg 9%
    16:00 +38°C° 0 mm 4 mps 689 mmHg 9%
    17:00 +37°C° 0 mm 4 mps 689 mmHg 10%
    18:00 +35°C° 0 mm 3 mps 689 mmHg 12%
    19:00 +33°C° 0 mm 3 mps 689 mmHg 15%
    20:00 +29°C° 0 mm 2 mps 689 mmHg 18%
    21:00 +28°C° 0 mm 2 mps 689 mmHg 21%
    22:00 +27°C° 0 mm 2 mps 689 mmHg 24%
    23:00 +26°C° 0 mm 2 mps 689 mmHg 28%

    Tomorrow, 8 June, Monday

    Time Temperature Precipitation Wind Pressure Humidity
    00:00 +25°C° 0 mm 1 mps 688 mmHg 27%
    01:00 +25°C° 0 mm 1 mps 688 mmHg 25%
    02:00 +24°C° 0 mm 1 mps 687 mmHg 24%
    03:00 +24°C° 0 mm 1 mps 687 mmHg 23%
    04:00 +24°C° 0 mm 1 mps 687 mmHg 22%
    05:00 +23°C° 0 mm 1 mps 687 mmHg 21%
    06:00 +26°C° 0 mm 1 mps 688 mmHg 18%
    07:00 +29°C° 0 mm 1 mps 689 mmHg 14%
    08:00 +31°C° 0 mm 1 mps 690 mmHg 11%
    09:00 +33°C° 0 mm 1 mps 690 mmHg 11%
    10:00 +35°C° 0 mm 2 mps 690 mmHg 10%
    11:00 +36°C° 0 mm 2 mps 690 mmHg 10%
    12:00 +37°C° 0 mm 3 mps 689 mmHg 10%
    13:00 +37°C° 0 mm 3 mps 689 mmHg 9%
    14:00 +38°C° 0 mm 4 mps 689 mmHg 9%
    15:00 +38°C° 0 mm 4 mps 689 mmHg 9%
    16:00 +37°C° 0 mm 4 mps 688 mmHg 9%
    17:00 +37°C° 0 mm 3 mps 688 mmHg 9%
    18:00 +34°C° 0 mm 4 mps 688 mmHg 16%
    19:00 +30°C° 0 mm 4 mps 688 mmHg 23%
    20:00 +28°C° 0 mm 4 mps 688 mmHg 30%
    21:00 +27°C° 0 mm 3 mps 688 mmHg 32%
    22:00 +26°C° 0 mm 3 mps 688 mmHg 34%
    23:00 +25°C° 0 mm 2 mps 688 mmHg 36%

    Day after tomorrow, 9 June, Tuesday

    Time Temperature Precipitation Wind Pressure Humidity
    00:00 +24°C° 0 mm 2 mps 688 mmHg 35%
    01:00 +24°C° 0 mm 2 mps 688 mmHg 34%
    02:00 +23°C° 0 mm 2 mps 688 mmHg 33%
    03:00 +23°C° 0 mm 2 mps 688 mmHg 33%
    04:00 +21°C° 0 mm 2 mps 688 mmHg 32%
    05:00 +21°C° 0 mm 2 mps 688 mmHg 32%
    06:00 +24°C° 0 mm 2 mps 688 mmHg 28%
    07:00 +26°C° 0 mm 2 mps 689 mmHg 24%
    08:00 +28°C° 0 mm 2 mps 690 mmHg 20%
    09:00 +30°C° 0 mm 2 mps 690 mmHg 18%
    10:00 +32°C° 0 mm 2 mps 690 mmHg 17%
    11:00 +35°C° 0 mm 2 mps 690 mmHg 15%
    12:00 +36°C° 0 mm 2 mps 690 mmHg 14%
    13:00 +37°C° 0 mm 3 mps 690 mmHg 12%
    14:00 +38°C° 0 mm 3 mps 689 mmHg 11%
    15:00 +37°C° 0 mm 3 mps 689 mmHg 12%
    16:00 +37°C° 0 mm 3 mps 689 mmHg 13%
    17:00 +36°C° 0 mm 4 mps 689 mmHg 14%
    18:00 +34°C° 0 mm 4 mps 689 mmHg 20%
    19:00 +30°C° 0 mm 4 mps 689 mmHg 26%
    20:00 +28°C° 0 mm 5 mps 689 mmHg 32%
    21:00 +26°C° 0 mm 4 mps 689 mmHg 36%
    22:00 +25°C° 0 mm 3 mps 689 mmHg 41%
    23:00 +22°C° 0 mm 3 mps 689 mmHg 45%

    10 June, Wednesday

    Time Temperature Precipitation Wind Pressure Humidity
    00:00 +23°C° 0 mm 2 mps 689 mmHg 43%
    01:00 +23°C° 0 mm 2 mps 689 mmHg 41%
    02:00 +21°C° 0 mm 2 mps 689 mmHg 39%
    03:00 +21°C° 0 mm 2 mps 689 mmHg 38%
    04:00 +20°C° 0 mm 2 mps 689 mmHg 36%
    05:00 +20°C° 0 mm 2 mps 689 mmHg 35%
    06:00 +23°C° 0 mm 2 mps 689 mmHg 29%
    07:00 +25°C° 0 mm 2 mps 690 mmHg 23%
    08:00 +27°C° 0 mm 3 mps 690 mmHg 17%
    09:00 +29°C° 0 mm 3 mps 690 mmHg 15%
    10:00 +32°C° 0 mm 4 mps 691 mmHg 13%
    11:00 +34°C° 0 mm 5 mps 691 mmHg 10%
    12:00 +35°C° 0 mm 6 mps 691 mmHg 10%
    13:00 +35°C° 0 mm 6 mps 690 mmHg 10%
    14:00 +36°C° 0 mm 7 mps 690 mmHg 11%
    15:00 +35°C° 0 mm 7 mps 690 mmHg 12%
    16:00 +35°C° 0 mm 8 mps 690 mmHg 14%
    17:00 +34°C° 0 mm 8 mps 689 mmHg 15%
    18:00 +32°C° 0 mm 7 mps 690 mmHg 20%
    19:00 +29°C° 0 mm 7 mps 690 mmHg 24%
    20:00 +27°C° 0 mm 6 mps 690 mmHg 29%
    21:00 +26°C° 0 mm 5 mps 690 mmHg 31%
    22:00 +25°C° 0 mm 4 mps 690 mmHg 34%
    23:00 +24°C° 0 mm 3 mps 690 mmHg 36%

    11 June, Thursday

    Time Temperature Precipitation Wind Pressure Humidity
    00:00 +24°C° 0 mm 3 mps 689 mmHg 36%
    01:00 +22°C° 0 mm 3 mps 689 mmHg 35%
    02:00 +23°C° 0 mm 2 mps 689 mmHg 34%
    03:00 +23°C° 0 mm 2 mps 689 mmHg 33%
    04:00 +21°C° 0 mm 2 mps 688 mmHg 32%
    05:00 +21°C° 0 mm 2 mps 688 mmHg 31%
    06:00 +25°C° 0 mm 3 mps 689 mmHg 27%
    07:00 +28°C° 0 mm 4 mps 690 mmHg 22%
    08:00 +32°C° 0 mm 5 mps 690 mmHg 17%
    09:00 +33°C° 0 mm 6 mps 690 mmHg 14%
    10:00 +35°C° 0 mm 6 mps 690 mmHg 11%
    11:00 +36°C° 0 mm 7 mps 690 mmHg 8%
    12:00 +38°C° 0 mm 8 mps 690 mmHg 9%
    13:00 +39°C° 0 mm 9 mps 690 mmHg 9%
    14:00 +39°C° 0 mm 10 mps 690 mmHg 9%
    15:00 +39°C° 0 mm 10 mps 689 mmHg 10%
    16:00 +38°C° 0 mm 10 mps 689 mmHg 12%
    17:00 +37°C° 0 mm 11 mps 689 mmHg 13%
    18:00 +33°C° 0 mm 8 mps 689 mmHg 17%
    19:00 +30°C° 0 mm 5 mps 689 mmHg 21%
    20:00 +27°C° 0 mm 3 mps 689 mmHg 25%
    21:00 +26°C° 0 mm 2 mps 688 mmHg 27%
    22:00 +25°C° 0 mm 1 mps 688 mmHg 28%
    23:00 +24°C° 0 mm 1 mps 688 mmHg 30%

    12 June, Friday

    Time Temperature Precipitation Wind Pressure Humidity
    00:00 +24°C° 0 mm 1 mps 688 mmHg 29%
    01:00 +24°C° 0 mm 1 mps 687 mmHg 29%
    02:00 +24°C° 0 mm 1 mps 687 mmHg 29%
    03:00 +24°C° 0 mm 1 mps 687 mmHg 30%
    04:00 +23°C° 0 mm 1 mps 687 mmHg 30%
    05:00 +23°C° 0 mm 1 mps 687 mmHg 30%
    06:00 +26°C° 0 mm 1 mps 688 mmHg 26%
    07:00 +29°C° 0 mm 2 mps 689 mmHg 22%
    08:00 +32°C° 0 mm 2 mps 689 mmHg 18%
    09:00 +35°C° 0 mm 3 mps 689 mmHg 17%
    10:00 +36°C° 0 mm 5 mps 690 mmHg 15%
    11:00 +39°C° 0 mm 6 mps 690 mmHg 14%
    12:00 +40°C° 0 mm 7 mps 690 mmHg 14%
    13:00 +40°C° 0 mm 7 mps 689 mmHg 13%
    14:00 +41°C° 0 mm 8 mps 689 mmHg 13%
    15:00 +40°C° 0 mm 8 mps 689 mmHg 14%
    16:00 +39°C° 0 mm 7 mps 689 mmHg 14%
    17:00 +39°C° 0 mm 7 mps 688 mmHg 15%
    18:00 +36°C° 0 mm 6 mps 688 mmHg 17%
    19:00 +34°C° 0 mm 5 mps 689 mmHg 19%
    20:00 +32°C° 0 mm 5 mps 689 mmHg 20%
    21:00 +29°C° 0 mm 4 mps 688 mmHg 26%
    22:00 +27°C° 0 mm 3 mps 688 mmHg 32%
    23:00 +25°C° 0 mm 2 mps 688 mmHg 38%
    Show more